TimeEDT,TemperatureF,Dew PointF,Humidity,Sea Level PressureIn,VisibilityMPH,Wind Direction,Wind SpeedMPH,Gust SpeedMPH,PrecipitationIn,Events,Conditions,WindDirDegrees,DateUTC
12:53 AM,73.9,71.1,91,29.99,10.0,West,6.9,-,0.00,,Overcast,280,2013-08-08 04:53:00
1:53 AM,73.0,70.0,90,29.99,10.0,WNW,6.9,-,N/A,,Overcast,300,2013-08-08 05:53:00
2:53 AM,72.0,69.1,91,29.98,10.0,Calm,Calm,-,N/A,,Scattered Clouds,0,2013-08-08 06:53:00
3:53 AM,73.0,69.1,87,29.99,10.0,Calm,Calm,-,N/A,,Overcast,0,2013-08-08 07:53:00
4:53 AM,71.1,69.1,93,29.98,10.0,Calm,Calm,-,N/A,,Overcast,0,2013-08-08 08:53:00
5:11 AM,71.6,69.8,94,30.01,10.0,NW,3.5,-,N/A,,Overcast,320,2013-08-08 09:11:00
5:53 AM,72.0,69.1,91,29.97,10.0,East,3.5,-,N/A,,Overcast,80,2013-08-08 09:53:00
6:12 AM,71.6,69.8,94,30.00,10.0,East,3.5,-,N/A,,Mostly Cloudy,80,2013-08-08 10:12:00
6:21 AM,71.6,69.8,94,30.01,10.0,Calm,Calm,-,N/A,,Overcast,0,2013-08-08 10:21:00
6:53 AM,72.0,69.1,91,29.98,4.0,Calm,Calm,-,N/A,,Mostly Cloudy,0,2013-08-08 10:53:00
7:00 AM,71.6,69.8,94,30.02,10.0,NNE,3.5,-,N/A,,Overcast,20,2013-08-08 11:00:00
7:25 AM,71.6,69.8,94,30.02,4.0,Calm,Calm,-,N/A,,Overcast,0,2013-08-08 11:25:00
7:53 AM,73.0,70.0,90,29.99,4.0,Calm,Calm,-,N/A,,Overcast,0,2013-08-08 11:53:00
8:20 AM,73.4,69.8,88,30.03,10.0,Calm,Calm,-,N/A,,Overcast,0,2013-08-08 12:20:00
8:53 AM,75.0,71.1,87,30.01,10.0,Calm,Calm,-,N/A,,Overcast,0,2013-08-08 12:53:00
9:11 AM,75.2,71.6,89,30.04,10.0,Calm,Calm,-,N/A,,Overcast,0,2013-08-08 13:11:00
9:53 AM,77.0,70.0,79,30.01,10.0,Calm,Calm,-,N/A,,Mostly Cloudy,0,2013-08-08 13:53:00
10:53 AM,77.0,71.1,82,30.02,10.0,Calm,Calm,-,N/A,,Mostly Cloudy,0,2013-08-08 14:53:00
11:53 AM,78.1,72.0,81,30.04,10.0,WNW,6.9,-,N/A,,Overcast,300,2013-08-08 15:53:00
12:53 PM,78.1,72.0,81,30.04,5.0,SW,4.6,-,0.00,Rain,Light Rain,220,2013-08-08 16:53:00
1:53 PM,79.0,73.9,84,30.01,10.0,NW,4.6,-,0.01,,Mostly Cloudy,320,2013-08-08 17:53:00
2:53 PM,80.1,73.0,79,30.00,10.0,NW,3.5,-,N/A,,Overcast,320,2013-08-08 18:53:00
3:53 PM,82.0,73.9,76,29.98,10.0,SW,6.9,-,N/A,,Overcast,220,2013-08-08 19:53:00
4:53 PM,82.9,73.9,74,29.97,10.0,West,8.1,-,N/A,,Mostly Cloudy,260,2013-08-08 20:53:00
5:53 PM,82.9,73.9,74,29.97,10.0,NNW,5.8,-,N/A,,Overcast,330,2013-08-08 21:53:00
6:15 PM,82.4,75.2,79,30.01,10.0,West,6.9,-,N/A,Thunderstorm,Thunderstorm,270,2013-08-08 22:15:00
6:53 PM,82.0,73.9,76,29.98,10.0,West,6.9,-,N/A,Thunderstorm,Thunderstorm,270,2013-08-08 22:53:00
7:32 PM,80.6,71.6,74,30.01,10.0,South,6.9,-,0.00,Rain-Thunderstorm,Light Thunderstorms and Rain,180,2013-08-08 23:32:00
7:50 PM,78.8,69.8,74,30.00,10.0,SW,9.2,-,0.00,,Overcast,220,2013-08-08 23:50:00
7:53 PM,78.1,70.0,76,29.96,10.0,SSW,6.9,-,0.00,,Overcast,210,2013-08-08 23:53:00
8:05 PM,78.8,69.8,74,29.99,10.0,SSW,8.1,-,N/A,,Overcast,200,2013-08-09 00:05:00
8:40 PM,75.2,69.8,83,30.00,10.0,SSW,12.7,-,0.00,Rain,Light Rain,200,2013-08-09 00:40:00
8:53 PM,73.9,70.0,87,29.97,10.0,South,8.1,-,0.00,Rain,Light Rain,190,2013-08-09 00:53:00
9:53 PM,73.0,70.0,90,29.99,10.0,WNW,5.8,-,0.02,,Overcast,300,2013-08-09 01:53:00
10:53 PM,71.1,69.1,93,30.00,10.0,West,9.2,-,N/A,,Overcast,280,2013-08-09 02:53:00
11:43 PM,71.6,69.8,94,30.04,10.0,WSW,5.8,-,N/A,,Overcast,250,2013-08-09 03:43:00
11:53 PM,71.1,69.1,93,30.00,10.0,West,3.5,-,N/A,,Overcast,260,2013-08-09 03:53:00